"startDT [UTC]","vpos","CH4 [ppm]","stdev(CH4) [ppm]","CO2 [ppm]","stdev(CO2) [ppm]","H2O [ppm]","stdev(H2O)","p_LGR [torr]","T_LGR [C]","mt1_LGR [us]","mt2_LGR [us]","T_ECpre [C]","T_EC1 [C]","T_EC2 [C]","p_inlet [hPa]","p_in [hPa]","p_out [hPa]","T_inlet [C]","RH_inlet [%]","dwpt_inlet [C]","T_vent [C]","RH_vent [%]","dwpt_vent [C]","flow_vent [l min-1]","flow_inlet [l min-1]","dwpt_sample [C]","T_room [C]"
2012-09-11 00:00:00,0.0,1.9411,0.0007,390.41,0.31,234.4,30.3,138.05,31.04,24.66,36.52,0.91,11.86,-26.59,-47,39,-939,23.8,21.2,0.3,24.2,1.8,-29.2,5.73,2.53,-27.6,30.3
2012-09-11 00:01:00,0.0,1.9413,0.0008,390.45,0.26,239.1,30.5,138.05,31.04,24.65,36.51,0.91,12.12,-26.58,-47,39,-939,23.8,21.3,0.3,24.2,1.8,-29.3,5.73,2.55,-27.6,30.3
2012-09-11 00:02:00,0.0,1.9415,0.0010,390.52,0.32,230.1,29.0,138.05,31.03,24.65,36.51,0.90,12.36,-26.58,-47,39,-938,23.8,21.1,0.2,24.2,1.8,-29.5,5.73,2.56,-27.7,30.3
2012-09-11 00:03:00,0.0,1.9410,0.0009,390.52,0.33,235.0,29.1,138.05,31.03,24.65,36.51,0.91,12.60,-26.58,-47,39,-938,23.8,20.8,0.0,24.2,1.8,-29.5,5.73,2.56,-27.7,30.3
2012-09-11 00:04:00,0.0,1.9407,0.0008,390.51,0.28,228.5,32.2,138.05,31.03,24.65,36.51,0.92,12.82,-26.57,-47,39,-938,23.8,20.7,-0.1,24.2,1.7,-29.7,5.73,2.55,-27.7,30.3
2012-09-11 00:05:00,0.0,1.9406,0.0008,390.45,0.30,224.5,28.2,138.05,31.03,24.66,36.51,0.91,13.03,-26.57,-47,39,-938,23.8,20.8,0.0,24.2,1.8,-29.5,5.73,2.53,-27.7,30.3
2012-09-11 00:06:00,0.0,1.9405,0.0007,390.42,0.28,228.6,27.7,138.05,31.03,24.65,36.51,0.90,13.24,-26.56,-47,39,-938,23.8,21.1,0.2,24.2,1.7,-29.7,5.73,2.54,-27.7,30.3
2012-09-11 00:07:00,0.0,1.9405,0.0008,390.35,0.30,227.1,34.6,138.05,31.03,24.65,36.52,0.93,13.45,-26.55,-47,39,-938,23.8,20.8,0.1,24.2,1.7,-29.6,5.73,2.56,-27.7,30.3
2012-09-11 00:08:00,0.0,1.9407,0.0010,390.44,0.36,226.3,31.1,138.05,31.03,24.65,36.52,0.92,13.63,-26.55,-47,39,-938,23.9,20.7,0.0,24.2,1.7,-29.7,5.73,2.56,-27.7,30.3
2012-09-11 00:09:00,0.0,1.9411,0.0009,390.50,0.30,217.5,29.4,138.05,31.03,24.65,36.51,0.91,13.82,-26.55,-47,39,-938,23.9,20.8,0.1,24.2,1.7,-29.7,5.73,2.54,-27.7,30.4
2012-09-11 00:10:00,0.0,1.9415,0.0007,390.46,0.26,228.6,30.2,138.05,31.03,24.65,36.52,0.92,13.99,-26.54,-47,39,-938,23.9,21.1,0.3,24.3,1.7,-29.7,5.73,2.53,-27.7,30.4
2012-09-11 00:11:00,0.0,1.9413,0.0009,390.39,0.28,227.5,31.3,138.05,31.03,24.65,36.52,0.92,14.16,-26.53,-47,39,-938,23.9,21.2,0.3,24.2,1.7,-29.7,5.73,2.54,-27.7,30.4
2012-09-11 00:12:00,0.0,1.9412,0.0009,390.47,0.31,227.0,35.9,138.05,31.03,24.65,36.51,0.93,14.32,-26.53,-47,39,-938,23.9,20.8,0.1,24.2,1.7,-29.8,5.73,2.56,-27.7,30.3
2012-09-11 00:13:00,0.0,1.9413,0.0008,390.44,0.26,221.3,26.1,138.05,31.03,24.65,36.52,0.94,14.48,-26.53,-47,39,-938,23.9,20.8,0.1,24.2,1.7,-29.9,5.73,2.57,-27.8,30.3
2012-09-11 00:14:00,0.0,1.9410,0.0010,390.53,0.33,224.4,31.2,138.05,31.03,24.65,36.51,0.93,14.63,-26.52,-47,39,-939,23.9,20.8,0.1,24.2,1.7,-29.9,5.73,2.54,-27.8,30.3
2012-09-11 00:15:00,0.0,1.9415,0.0008,390.48,0.27,226.7,35.4,138.05,31.03,24.65,36.52,0.93,14.78,-26.52,-47,39,-938,23.8,21.2,0.3,24.2,1.7,-29.8,5.73,2.53,-27.8,30.3
2012-09-11 00:16:00,0.0,1.9411,0.0010,390.47,0.30,224.0,33.7,138.05,31.02,24.65,36.51,0.93,14.91,-26.52,-47,39,-939,23.8,21.2,0.3,24.2,1.7,-29.8,5.73,2.55,-27.8,30.4
2012-09-11 00:17:00,0.0,1.9407,0.0009,390.44,0.30,217.7,28.8,138.05,31.02,24.65,36.51,0.93,15.04,-26.51,-47,39,-939,23.8,21.0,0.2,24.2,1.7,-29.6,5.73,2.56,-27.8,30.4
2012-09-11 00:18:00,0.0,1.9405,0.0008,390.45,0.34,221.9,30.2,138.05,31.02,24.65,36.51,0.92,15.17,-26.50,-47,39,-939,23.8,20.9,0.1,24.2,1.7,-29.7,5.73,2.55,-27.8,30.4
2012-09-11 00:19:00,0.0,1.9409,0.0008,390.35,0.28,219.6,31.8,138.05,31.02,24.65,36.52,0.93,15.29,-26.50,-47,39,-939,23.8,20.9,0.1,24.2,1.7,-29.6,5.73,2.54,-27.8,30.4
2012-09-11 00:20:00,0.0,1.9411,0.0009,390.46,0.34,230.8,32.0,138.05,31.02,24.65,36.52,0.93,15.41,-26.50,-47,39,-939,23.8,20.9,0.1,24.2,1.7,-29.8,5.73,2.54,-27.8,30.4
2012-09-11 00:21:00,0.0,1.9415,0.0008,390.35,0.32,219.6,33.4,138.05,31.02,24.65,36.52,0.93,15.52,-26.50,-47,39,-939,23.8,21.1,0.2,24.2,1.7,-29.8,5.73,2.56,-27.8,30.4
2012-09-11 00:22:00,0.0,1.9420,0.0009,390.46,0.29,217.6,30.7,138.05,31.02,24.65,36.51,0.93,15.62,-26.49,-47,39,-939,23.8,21.2,0.3,24.2,1.7,-29.8,5.73,2.56,-27.8,30.4
2012-09-11 00:23:00,0.0,1.9421,0.0011,390.49,0.32,220.0,31.4,138.05,31.02,24.65,36.51,0.93,15.72,-26.50,-47,39,-939,23.8,21.4,0.4,24.2,1.7,-29.8,5.73,2.55,-27.8,30.4
2012-09-11 00:24:00,0.0,1.9413,0.0008,390.41,0.29,223.2,25.2,138.05,31.02,24.65,36.52,0.94,15.82,-26.49,-47,39,-939,23.8,21.2,0.3,24.2,1.7,-29.9,5.73,2.53,-27.8,30.4
2012-09-11 00:25:00,0.0,1.9405,0.0009,390.36,0.27,222.3,28.1,138.05,31.02,24.66,36.52,0.93,15.91,-26.49,-47,39,-938,23.8,21.0,0.2,24.2,1.7,-29.9,5.73,2.54,-27.9,30.3
2012-09-11 00:26:00,0.0,1.9408,0.0011,390.52,0.29,226.0,30.2,138.05,31.02,24.66,36.51,0.93,16.00,-26.49,-47,39,-939,23.8,21.0,0.2,24.2,1.7,-29.9,5.73,2.56,-27.8,30.4
2012-09-11 00:27:00,0.0,1.9412,0.0008,390.47,0.27,217.4,34.4,138.05,31.02,24.65,36.52,0.93,16.08,-26.48,-47,39,-939,23.9,21.2,0.3,24.2,1.7,-29.8,5.73,2.56,-27.9,30.3
2012-09-11 00:28:00,0.0,1.9404,0.0009,390.39,0.31,218.3,24.6,138.05,31.02,24.65,36.52,0.93,16.16,-26.48,-47,39,-938,23.9,20.9,0.1,24.2,1.7,-30.0,5.73,2.54,-27.9,30.3
2012-09-11 00:29:00,0.0,1.9407,0.0009,390.41,0.29,223.6,27.3,138.05,31.01,24.65,36.52,0.93,16.23,-26.48,-47,39,-938,23.9,20.9,0.2,24.2,1.7,-30.0,5.73,2.54,-27.9,30.3
2012-09-11 00:30:00,0.0,1.9409,0.0009,390.50,0.29,219.2,36.9,138.05,31.01,24.65,36.52,0.93,16.31,-26.48,-47,39,-938,23.9,21.1,0.2,24.2,1.7,-30.0,5.73,2.54,-27.9,30.4
2012-09-11 00:31:00,0.0,1.9411,0.0008,390.48,0.30,216.4,32.6,138.05,31.01,24.65,36.51,0.93,16.38,-26.48,-47,39,-938,23.9,21.2,0.3,24.2,1.7,-30.0,5.73,2.56,-27.9,30.4
2012-09-11 00:32:00,0.0,1.9413,0.0009,390.55,0.31,219.4,31.5,138.05,31.01,24.65,36.51,0.91,16.45,-26.47,-47,39,-938,23.9,21.1,0.3,24.3,1.7,-30.0,5.73,2.56,-27.9,30.4
2012-09-11 00:33:00,0.0,1.9410,0.0010,390.43,0.29,211.5,32.9,138.05,31.01,24.66,36.52,0.93,16.51,-26.48,-47,39,-938,23.8,21.0,0.2,24.3,1.7,-30.0,5.73,2.54,-27.9,30.3
2012-09-11 00:34:00,0.0,1.9409,0.0008,390.46,0.29,218.7,27.1,138.05,31.01,24.65,36.51,0.92,16.58,-26.47,-47,39,-938,23.8,20.9,0.1,24.2,1.7,-30.0,5.73,2.53,-27.9,30.4
2012-09-11 00:35:00,0.0,1.9410,0.0009,390.51,0.31,216.7,31.2,138.05,31.01,24.65,36.51,0.92,16.64,-26.47,-47,39,-938,23.8,20.8,0.0,24.2,1.7,-30.0,5.73,2.55,-27.9,30.4
2012-09-11 00:36:00,0.0,1.9414,0.0009,390.52,0.29,222.8,26.6,138.05,31.01,24.65,36.51,0.94,16.69,-26.47,-47,39,-938,23.8,20.9,0.1,24.2,1.7,-30.1,5.73,2.56,-27.9,30.3
2012-09-11 00:37:00,0.0,1.9408,0.0011,390.49,0.26,218.9,30.1,138.05,31.01,24.65,36.52,0.90,16.75,-26.47,-47,39,-938,23.8,21.0,0.1,24.2,1.7,-30.0,5.73,2.55,-27.9,30.3
2012-09-11 00:38:00,0.0,1.9408,0.0009,390.48,0.35,219.5,26.3,138.05,31.01,24.65,36.52,0.91,16.80,-26.47,-47,39,-938,23.8,21.0,0.1,24.2,1.7,-29.9,5.73,2.53,-27.9,30.4
2012-09-11 00:39:00,0.0,1.9410,0.0011,390.53,0.25,215.8,30.8,138.05,31.01,24.65,36.51,0.94,16.85,-26.47,-47,39,-938,23.8,21.1,0.2,24.2,1.7,-30.0,5.73,2.54,-27.9,30.3
2012-09-11 00:40:00,0.0,1.9407,0.0010,390.48,0.31,209.4,30.8,138.05,31.01,24.66,36.52,0.91,16.90,-26.47,-47,39,-938,23.8,21.4,0.4,24.2,1.7,-30.0,5.73,2.56,-27.9,30.3
2012-09-11 00:41:00,0.0,1.9412,0.0009,390.49,0.30,211.0,29.2,138.05,31.01,24.65,36.51,0.93,16.94,-26.47,-47,39,-938,23.8,21.5,0.4,24.2,1.7,-29.8,5.73,2.56,-27.9,30.4
2012-09-11 00:42:00,0.0,1.9409,0.0009,390.48,0.25,213.7,31.8,138.05,31.01,24.65,36.52,0.91,16.99,-26.47,-47,39,-938,23.8,21.0,0.1,24.2,1.7,-29.9,5.73,2.55,-27.9,30.4
2012-09-11 00:43:00,0.0,1.9417,0.0009,390.52,0.31,209.4,23.2,138.05,31.01,24.65,36.51,0.93,17.03,-26.47,-47,39,-938,23.8,21.1,0.2,24.2,1.7,-29.9,5.73,2.53,-28.0,30.4
2012-09-11 00:44:00,0.0,1.9410,0.0009,390.52,0.31,218.7,30.6,138.05,31.00,24.65,36.52,0.93,17.07,-26.47,-47,39,-938,23.8,21.1,0.2,24.2,1.7,-29.7,5.73,2.53,-28.0,30.4
2012-09-11 00:45:00,0.0,1.9407,0.0009,390.48,0.27,214.0,29.1,138.05,31.00,24.65,36.52,0.92,17.11,-26.47,-47,39,-938,23.8,20.9,0.1,24.2,1.7,-29.9,5.73,2.56,-28.0,30.3
2012-09-11 00:46:00,0.0,1.9407,0.0009,390.47,0.31,215.0,34.0,138.05,31.00,24.65,36.52,0.94,17.14,-26.47,-47,39,-938,23.8,21.0,0.2,24.2,1.7,-29.9,5.73,2.56,-28.0,30.4
2012-09-11 00:47:00,0.0,1.9408,0.0008,390.52,0.32,213.4,33.0,138.05,31.00,24.65,36.52,0.91,17.18,-26.46,-47,39,-938,23.8,20.9,0.1,24.2,1.7,-30.0,5.73,2.55,-28.0,30.4
2012-09-11 00:48:00,0.0,1.9409,0.0008,390.44,0.31,210.7,28.7,138.05,31.00,24.65,36.52,0.92,17.21,-26.46,-47,39,-938,23.8,21.0,0.2,24.2,1.7,-30.1,5.73,2.53,-28.0,30.4
2012-09-11 00:49:00,0.0,1.9411,0.0010,390.44,0.32,210.5,33.7,138.05,31.00,24.65,36.52,0.91,17.24,-26.47,-47,39,-938,23.8,21.1,0.3,24.2,1.7,-30.0,5.73,2.54,-28.0,30.4
2012-09-11 00:50:00,0.0,1.9415,0.0010,390.59,0.28,210.8,33.0,138.05,31.00,24.65,36.51,0.92,17.27,-26.46,-47,39,-938,23.9,21.5,0.5,24.2,1.7,-30.0,5.73,2.55,-28.0,30.4
2012-09-11 00:51:00,0.0,1.9407,0.0010,390.45,0.31,222.7,34.9,138.05,31.00,24.65,36.52,0.92,17.30,-26.47,-47,39,-938,23.9,21.3,0.4,24.2,1.7,-30.0,5.73,2.56,-28.0,30.4
2012-09-11 00:52:00,0.0,1.9404,0.0008,390.47,0.31,206.1,31.7,138.05,31.00,24.65,36.52,0.92,17.33,-26.46,-47,39,-938,23.9,21.4,0.5,24.2,1.7,-30.0,5.73,2.55,-28.0,30.3
2012-09-11 00:53:00,0.0,1.9400,0.0010,390.44,0.22,218.5,32.7,138.05,31.00,24.66,36.52,0.93,17.36,-26.46,-47,39,-938,23.9,21.0,0.2,24.2,1.7,-30.0,5.73,2.53,-28.0,30.4
2012-09-11 00:54:00,0.0,1.9404,0.0010,390.42,0.33,211.2,27.7,138.05,31.00,24.65,36.52,0.93,17.38,-26.46,-47,39,-938,23.9,20.8,0.1,24.2,1.7,-30.0,5.73,2.53,-28.0,30.4
2012-09-11 00:55:00,0.0,1.9402,0.0008,390.46,0.31,206.3,30.2,138.05,31.00,24.65,36.52,0.93,17.41,-26.45,-47,39,-938,23.8,20.8,0.0,24.2,1.7,-30.1,5.73,2.55,-28.0,30.4
2012-09-11 00:56:00,0.0,1.9398,0.0009,390.48,0.31,215.6,24.6,138.05,31.00,24.65,36.52,0.93,17.44,-26.46,-47,39,-938,23.9,20.7,0.0,24.2,1.7,-30.0,5.73,2.56,-28.0,30.4
2012-09-11 00:57:00,0.0,1.9399,0.0008,390.49,0.27,208.4,31.6,138.05,31.00,24.65,36.52,0.92,17.46,-26.45,-47,39,-938,23.8,20.9,0.1,24.2,1.7,-30.0,5.73,2.55,-28.0,30.4
2012-09-11 00:58:00,0.0,1.9399,0.0008,390.57,0.31,204.8,28.1,138.05,31.00,24.65,36.51,0.93,17.48,-26.45,-47,39,-938,23.8,20.9,0.1,24.2,1.7,-30.1,5.73,2.54,-28.0,30.4
2012-09-11 00:59:00,0.0,1.9398,0.0008,390.53,0.30,213.4,26.6,138.05,31.00,24.66,36.51,0.93,17.50,-26.45,-47,39,-938,23.9,20.9,0.1,24.2,1.7,-30.0,5.73,2.53,-28.1,30.4
2012-09-11 01:00:00,0.0,1.9405,0.0009,390.52,0.28,213.9,31.9,138.05,31.00,24.65,36.51,0.93,17.52,-26.45,-47,39,-938,23.9,21.0,0.2,24.3,1.7,-30.0,5.73,2.55,-28.1,30.4
2012-09-11 01:01:00,0.0,1.9402,0.0009,390.40,0.23,208.7,27.6,138.05,31.00,24.65,36.52,0.93,17.54,-26.45,-47,39,-938,23.9,20.9,0.1,24.3,1.7,-30.1,5.73,2.57,-28.1,30.5
2012-09-11 01:02:00,0.0,1.9405,0.0008,390.51,0.31,213.3,30.0,138.05,31.00,24.65,36.52,0.93,17.56,-26.45,-47,39,-938,23.9,21.0,0.2,24.3,1.7,-30.0,5.73,2.55,-28.1,30.4
2012-09-11 01:03:00,0.0,1.9402,0.0009,390.50,0.29,211.4,27.1,138.05,31.01,24.65,36.51,0.93,17.58,-26.45,-47,39,-938,23.9,20.9,0.2,24.3,1.7,-30.0,5.73,2.53,-28.1,30.4
2012-09-11 01:04:00,0.0,1.9403,0.0011,390.55,0.26,213.9,24.8,138.05,31.01,24.65,36.51,0.93,17.59,-26.44,-47,39,-938,23.9,21.2,0.4,24.3,1.7,-30.0,5.73,2.53,-28.0,30.4
2012-09-11 01:05:00,0.0,1.9402,0.0009,390.62,0.29,208.0,33.2,138.05,31.01,24.65,36.52,0.93,17.61,-26.45,-47,39,-938,23.9,21.0,0.2,24.3,1.7,-30.0,5.73,2.55,-28.1,30.4
2012-09-11 01:06:00,0.0,1.9398,0.0009,390.41,0.36,209.4,29.1,138.05,31.01,24.65,36.52,0.93,17.62,-26.44,-47,39,-938,23.9,20.9,0.2,24.3,1.7,-30.0,5.73,2.56,-28.1,30.4
2012-09-11 01:07:00,0.0,1.9394,0.0008,390.53,0.35,208.8,32.1,138.05,31.01,24.65,36.51,0.93,17.64,-26.44,-47,39,-938,24.0,20.8,0.2,24.3,1.7,-30.0,5.73,2.55,-28.0,30.5
2012-09-11 01:08:00,0.0,1.9395,0.0009,390.54,0.28,216.4,29.6,138.05,31.01,24.65,36.51,0.93,17.66,-26.44,-47,39,-939,24.0,20.9,0.2,24.3,1.7,-30.0,5.73,2.54,-28.0,30.4
2012-09-11 01:09:00,0.0,1.9393,0.0010,390.49,0.26,210.3,31.0,138.05,31.01,24.66,36.52,0.93,17.67,-26.44,-47,39,-939,24.0,20.7,0.1,24.3,1.7,-30.0,5.73,2.53,-28.1,30.5
2012-09-11 01:10:00,0.0,1.9393,0.0009,390.49,0.32,208.0,29.8,138.05,31.01,24.65,36.51,1.00,17.55,-26.44,-47,39,-939,24.0,20.7,0.1,24.4,1.7,-29.9,5.73,2.55,-28.0,30.5
2012-09-11 01:11:00,0.0,1.9392,0.0009,390.61,0.30,210.4,33.8,138.05,31.01,24.65,36.51,1.08,16.12,-26.44,-47,39,-939,24.0,20.8,0.2,24.4,1.7,-29.9,5.73,2.56,-28.1,30.5
2012-09-11 01:12:00,0.0,1.9390,0.0010,390.57,0.25,210.6,34.2,138.05,31.01,24.65,36.51,1.08,13.90,-26.44,-47,39,-939,24.0,20.8,0.2,24.4,1.7,-30.0,5.73,2.55,-28.1,30.6
2012-09-11 01:13:00,0.0,1.9392,0.0009,390.47,0.29,215.1,30.2,138.05,31.02,24.65,36.52,0.94,11.59,-26.44,-47,39,-939,24.0,20.6,0.1,24.4,1.7,-29.9,5.73,2.54,-28.1,30.5
2012-09-11 01:14:00,0.0,1.9388,0.0009,390.47,0.34,214.6,32.4,138.05,31.02,24.65,36.52,1.01,9.30,-26.44,-47,39,-939,24.0,20.5,0.0,24.4,1.7,-29.9,5.73,2.53,-28.0,30.5
2012-09-11 01:15:00,0.0,1.9392,0.0008,390.57,0.29,206.0,36.7,138.05,31.02,24.65,36.51,1.08,7.09,-26.42,-47,39,-939,24.0,20.5,-0.0,24.4,1.7,-29.9,5.73,2.54,-28.1,30.6
2012-09-11 01:16:00,0.0,1.9390,0.0010,390.59,0.29,214.3,37.2,138.05,31.02,24.66,36.51,0.98,4.97,-26.41,-47,39,-939,24.0,20.5,-0.0,24.4,1.7,-29.9,5.73,2.55,-28.1,30.6
2012-09-11 01:17:00,0.0,1.9392,0.0008,390.62,0.33,206.8,27.9,138.05,31.02,24.65,36.52,0.99,2.97,-26.40,-47,39,-938,24.0,20.8,0.2,24.4,1.7,-29.9,5.73,2.56,-28.0,30.6
2012-09-11 01:18:00,0.0,1.9392,0.0010,390.64,0.36,208.2,35.3,138.05,31.03,24.65,36.51,1.09,1.05,-26.38,-47,39,-938,24.0,20.6,0.1,24.4,1.7,-29.9,5.73,2.54,-28.0,30.7
2012-09-11 01:19:00,0.0,1.9392,0.0009,390.61,0.30,212.3,28.4,138.04,31.03,24.65,36.52,1.02,-0.76,-26.36,-47,39,-938,24.0,20.6,0.1,24.4,1.7,-29.9,5.73,2.53,-28.0,30.7
2012-09-11 01:20:00,0.0,1.9385,0.0008,390.64,0.31,214.3,28.6,138.04,31.04,24.66,36.51,0.96,-2.41,-26.35,-47,39,-938,24.0,20.4,-0.1,24.4,1.7,-29.9,5.73,2.53,-28.0,30.6
2012-09-11 01:21:00,0.0,1.9384,0.0010,390.66,0.34,215.3,26.7,138.04,31.04,24.66,36.52,1.04,-3.89,-26.33,-47,39,-938,24.0,20.4,-0.1,24.4,1.7,-29.9,5.73,2.55,-28.0,30.6
2012-09-11 01:22:00,0.0,1.9385,0.0009,390.69,0.28,209.9,33.0,138.04,31.05,24.65,36.52,1.06,-5.33,-26.32,-47,39,-939,24.0,20.4,-0.1,24.4,1.7,-30.0,5.73,2.55,-28.0,30.6
2012-09-11 01:23:00,0.0,1.9392,0.0010,390.64,0.28,208.3,31.5,138.04,31.05,24.65,36.52,0.97,-6.14,-26.32,-47,39,-939,24.0,20.5,0.0,24.4,1.7,-29.9,5.73,2.55,-28.0,30.7
2012-09-11 01:24:00,0.0,1.9390,0.0008,390.70,0.27,217.8,33.4,138.04,31.06,24.65,36.51,0.97,-7.02,-26.30,-47,39,-939,24.0,20.4,-0.0,24.4,1.7,-29.9,5.73,2.53,-28.0,30.7
2012-09-11 01:25:00,0.0,1.9396,0.0008,390.75,0.27,211.7,32.1,138.04,31.07,24.65,36.51,1.05,-8.67,-26.30,-47,39,-939,24.0,20.5,0.0,24.4,1.7,-30.0,5.73,2.52,-28.0,30.7
2012-09-11 01:26:00,0.0,1.9395,0.0007,390.71,0.28,216.0,31.5,138.04,31.07,24.65,36.52,1.04,-9.97,-26.29,-47,39,-939,24.0,20.5,0.0,24.4,1.7,-29.9,5.73,2.54,-28.0,30.7
2012-09-11 01:27:00,0.0,1.9394,0.0009,390.74,0.28,220.5,35.7,138.04,31.08,24.65,36.52,0.94,-11.10,-26.29,-47,39,-939,24.0,20.5,0.0,24.4,1.7,-29.9,5.73,2.55,-28.0,30.6
2012-09-11 01:28:00,0.0,1.9393,0.0009,390.93,0.29,212.2,33.0,138.04,31.08,24.65,36.51,0.99,-12.16,-26.29,-47,39,-939,24.0,20.5,0.0,24.4,1.7,-29.9,5.73,2.55,-28.0,30.6
2012-09-11 01:29:00,0.0,1.9396,0.0008,390.79,0.33,219.6,30.4,138.04,31.09,24.65,36.52,1.06,-13.19,-26.29,-47,39,-938,24.1,20.8,0.3,24.4,1.7,-29.9,5.73,2.54,-28.0,30.8
2012-09-11 01:30:00,0.0,1.9396,0.0008,390.85,0.31,220.5,28.9,138.04,31.09,24.65,36.52,1.03,-14.14,-26.29,-47,39,-938,24.1,20.7,0.2,24.4,1.7,-29.9,5.73,2.52,-28.0,30.7
2012-09-11 01:31:00,0.0,1.9397,0.0011,390.87,0.28,219.5,32.2,138.04,31.10,24.65,36.52,0.95,-14.99,-26.29,-47,39,-938,24.1,20.6,0.1,24.4,1.7,-30.0,5.73,2.52,-28.0,30.7
2012-09-11 01:32:00,0.0,1.9397,0.0010,390.92,0.32,214.5,28.3,138.04,31.10,24.65,36.51,0.99,-15.80,-26.29,-47,39,-939,24.1,20.8,0.3,24.4,1.7,-29.9,5.73,2.53,-28.0,30.7
2012-09-11 01:33:00,0.0,1.9396,0.0008,390.92,0.33,218.1,34.6,138.04,31.11,24.65,36.51,1.05,-16.54,-26.30,-47,39,-939,24.1,20.9,0.3,24.4,1.7,-29.9,5.73,2.55,-28.0,30.8
2012-09-11 01:34:00,0.0,1.9402,0.0010,390.86,0.26,222.4,34.3,138.04,31.11,24.65,36.52,1.03,-17.25,-26.30,-47,39,-939,24.1,20.9,0.3,24.4,1.7,-29.9,5.73,2.55,-28.0,30.8
2012-09-11 01:35:00,0.0,1.9400,0.0011,390.93,0.30,215.3,26.7,138.04,31.12,24.65,36.51,0.95,-17.96,-26.30,-47,39,-939,24.1,20.8,0.3,24.4,1.7,-29.9,5.73,2.53,-28.0,30.8
2012-09-11 01:36:00,0.0,1.9392,0.0010,390.96,0.28,213.9,35.6,138.04,31.13,24.65,36.51,0.97,-18.63,-26.31,-47,39,-939,24.1,20.4,-0.0,24.4,1.7,-29.9,5.73,2.52,-28.0,30.8
2012-09-11 01:37:00,0.0,1.9390,0.0009,390.97,0.29,218.8,35.6,138.04,31.13,24.65,36.51,1.03,-19.28,-26.32,-47,39,-939,24.1,20.3,-0.1,24.5,1.7,-29.9,5.73,2.52,-28.0,30.8
2012-09-11 01:38:00,0.0,1.9388,0.0009,390.83,0.30,205.9,33.8,138.04,31.13,24.65,36.51,1.05,-19.88,-26.32,-47,39,-938,24.1,20.3,-0.1,24.5,1.7,-29.9,5.73,2.53,-28.0,30.8
2012-09-11 01:39:00,0.0,1.9385,0.0009,390.90,0.31,216.8,31.7,138.04,31.14,24.65,36.51,0.96,-20.45,-26.33,-47,38,-938,24.1,20.1,-0.2,24.5,1.7,-29.9,5.73,2.54,-28.0,30.8
2012-09-11 01:40:00,0.0,1.9384,0.0010,390.81,0.26,207.5,33.0,138.04,31.14,24.65,36.52,0.97,-20.99,-26.34,-47,39,-938,24.1,20.3,-0.1,24.5,1.7,-29.9,5.73,2.54,-28.0,30.8
2012-09-11 01:41:00,0.0,1.9392,0.0008,390.85,0.32,215.0,32.9,138.04,31.15,24.65,36.51,1.03,-21.49,-26.34,-47,38,-939,24.1,20.3,-0.1,24.5,1.7,-29.9,5.73,2.53,-28.0,30.8
2012-09-11 01:42:00,0.0,1.9389,0.0008,390.83,0.25,218.7,33.8,138.04,31.15,24.65,36.52,1.04,-21.97,-26.35,-47,38,-939,24.1,20.2,-0.1,24.5,1.7,-29.9,5.73,2.53,-28.1,30.8
2012-09-11 01:43:00,0.0,1.9387,0.0010,390.78,0.30,210.4,32.1,138.04,31.16,24.65,36.52,0.97,-22.42,-26.36,-47,38,-939,24.1,20.1,-0.2,24.5,1.7,-29.9,5.73,2.52,-28.0,30.8
2012-09-11 01:44:00,0.0,1.9391,0.0009,390.94,0.29,209.1,34.3,138.04,31.17,24.65,36.51,0.96,-22.84,-26.37,-47,38,-939,24.1,20.2,-0.1,24.5,1.7,-29.9,5.73,2.53,-28.1,30.8
2012-09-11 01:45:00,0.0,1.9392,0.0011,390.92,0.31,203.7,34.5,138.04,31.17,24.65,36.52,1.01,-23.23,-26.37,-47,38,-939,24.1,20.2,-0.1,24.5,1.6,-30.1,5.73,2.54,-28.1,30.8
2012-09-11 01:46:00,0.0,1.9396,0.0009,390.88,0.29,210.2,31.9,138.04,31.18,24.65,36.52,1.05,-23.60,-26.38,-47,38,-939,24.1,20.4,0.1,24.5,1.6,-30.0,5.73,2.54,-28.1,30.8
2012-09-11 01:47:00,0.0,1.9389,0.0010,390.96,0.30,214.7,39.5,138.04,31.18,24.65,36.51,1.00,-23.94,-26.39,-47,38,-939,24.1,20.4,0.0,24.5,1.6,-30.0,5.73,2.54,-28.1,30.8
2012-09-11 01:48:00,0.0,1.9391,0.0008,390.83,0.31,207.9,35.1,138.04,31.19,24.65,36.52,0.95,-24.27,-26.40,-47,38,-939,24.1,20.5,0.1,24.5,1.6,-30.0,5.73,2.53,-28.1,30.9
2012-09-11 01:49:00,0.0,1.9392,0.0011,391.00,0.29,199.7,33.2,138.04,31.20,24.65,36.51,0.98,-24.58,-26.40,-47,38,-938,24.2,20.5,0.1,24.5,1.6,-30.0,5.73,2.52,-28.1,30.9
2012-09-11 01:50:00,0.0,1.9394,0.0010,390.98,0.27,209.8,33.8,138.04,31.21,24.65,36.51,1.04,-24.88,-26.41,-47,38,-938,24.2,20.4,0.1,24.5,1.6,-30.0,5.73,2.53,-28.1,30.9
2012-09-11 01:51:00,0.0,1.9388,0.0009,391.01,0.30,205.3,26.8,138.03,31.21,24.65,36.52,1.03,-25.16,-26.42,-47,38,-938,24.2,20.1,-0.1,24.5,1.6,-30.0,5.73,2.54,-28.1,30.9
2012-09-11 01:52:00,0.0,1.9389,0.0009,390.92,0.33,196.9,32.6,138.03,31.22,24.65,36.52,0.97,-25.42,-26.42,-47,38,-938,24.2,20.5,0.1,24.5,1.6,-30.0,5.73,2.54,-28.1,30.8
2012-09-11 01:53:00,0.0,1.9387,0.0010,390.90,0.29,208.1,34.8,138.04,31.22,24.65,36.51,0.96,-25.68,-26.43,-47,38,-939,24.2,20.6,0.2,24.5,1.6,-30.0,5.73,2.54,-28.1,30.9
2012-09-11 01:54:00,0.0,1.9386,0.0009,391.00,0.32,206.1,33.8,138.03,31.22,24.65,36.51,1.02,-25.91,-26.43,-47,38,-939,24.2,20.7,0.3,24.6,1.6,-30.1,5.73,2.53,-28.2,30.9
2012-09-11 01:55:00,0.0,1.9382,0.0010,390.88,0.31,203.1,30.1,138.03,31.23,24.65,36.52,1.05,-26.14,-26.44,-47,38,-939,24.2,20.5,0.1,24.6,1.6,-30.2,5.73,2.51,-28.1,30.9
2012-09-11 01:56:00,0.0,1.9379,0.0010,390.92,0.33,201.8,34.4,138.03,31.24,24.65,36.52,1.00,-26.35,-26.44,-47,38,-939,24.2,20.1,-0.1,24.6,1.6,-30.2,5.73,2.53,-28.2,30.9
2012-09-11 01:57:00,0.0,1.9379,0.0010,390.94,0.31,201.2,36.3,138.03,31.25,24.65,36.51,0.94,-26.21,-26.44,-47,38,-939,24.2,20.1,-0.1,24.5,1.6,-30.2,5.73,2.53,-28.2,31.0
2012-09-11 01:58:00,0.0,1.9380,0.0012,390.92,0.29,191.4,32.5,138.03,31.25,24.65,36.52,0.95,-26.13,-26.45,-47,38,-939,24.2,20.2,-0.0,24.6,1.6,-30.2,5.73,2.54,-28.2,31.0
2012-09-11 01:59:00,0.0,1.9386,0.0011,391.05,0.30,199.2,36.2,138.03,31.26,24.65,36.51,0.97,-26.28,-26.45,-47,38,-939,24.2,20.4,0.1,24.6,1.6,-30.2,5.73,2.53,-28.2,31.0
2012-09-11 02:00:00,0.0,1.9384,0.0013,390.99,0.29,191.7,28.1,138.03,31.26,24.65,36.52,0.92,-26.37,-26.47,-47,38,-939,24.2,20.1,-0.1,24.6,1.6,-30.2,5.73,2.53,-28.2,30.9
2012-09-11 02:01:00,0.0,1.9379,0.0010,390.93,0.30,207.1,28.9,138.03,31.27,24.65,36.52,1.03,-26.11,-26.46,-47,38,-939,24.2,20.0,-0.2,24.6,1.6,-30.2,5.73,2.52,-28.2,31.0
2012-09-11 02:02:00,0.0,1.9377,0.0010,391.04,0.25,190.9,35.7,138.03,31.28,24.65,36.51,1.06,-26.21,-26.47,-47,38,-939,24.2,20.1,-0.1,24.6,1.6,-30.2,5.73,2.51,-28.2,30.9
2012-09-11 02:03:00,0.0,1.9377,0.0009,390.97,0.28,194.8,33.8,138.03,31.28,24.65,36.51,0.99,-26.39,-26.48,-47,38,-938,24.2,20.1,-0.1,24.6,1.6,-30.2,5.73,2.52,-28.2,31.0
2012-09-11 02:04:00,0.0,1.9381,0.0010,390.97,0.28,197.9,30.4,138.03,31.29,24.65,36.51,0.96,-26.24,-26.49,-47,38,-938,24.2,19.9,-0.2,24.6,1.6,-30.2,5.73,2.53,-28.2,31.0
2012-09-11 02:05:00,0.0,1.9380,0.0013,391.07,0.29,196.4,34.4,138.03,31.30,24.65,36.51,0.95,-26.16,-26.49,-47,38,-938,24.3,19.9,-0.2,24.6,1.6,-30.2,5.73,2.54,-28.2,31.0
2012-09-11 02:06:00,0.0,1.9376,0.0009,390.93,0.33,192.5,40.2,138.03,31.30,24.66,36.52,0.99,-26.32,-26.50,-48,38,-938,24.3,19.9,-0.2,24.6,1.6,-30.2,5.73,2.53,-28.2,30.9
2012-09-11 02:07:00,0.0,1.9381,0.0010,390.96,0.31,189.2,34.1,138.03,31.31,24.65,36.51,0.93,-26.42,-26.50,-47,38,-938,24.3,19.8,-0.3,24.6,1.6,-30.2,5.73,2.52,-28.3,31.0
2012-09-11 02:08:00,0.0,1.9380,0.0011,390.98,0.33,194.2,32.5,138.03,31.32,24.65,36.51,1.03,-26.15,-26.50,-47,38,-939,24.3,20.0,-0.1,24.6,1.6,-30.2,5.73,2.51,-28.3,31.0
2012-09-11 02:09:00,0.0,1.9383,0.0011,391.02,0.28,189.7,33.8,138.03,31.32,24.65,36.51,1.01,-26.24,-26.43,-47,38,-939,24.3,20.2,0.0,24.7,1.6,-30.1,5.73,2.52,-28.2,30.9
2012-09-11 02:10:00,0.0,1.9385,0.0009,391.13,0.25,187.2,32.6,138.03,31.33,24.65,36.51,0.82,-26.44,-25.26,-47,38,-939,24.3,20.3,0.1,24.7,1.6,-30.1,5.73,2.52,-28.3,30.9
2012-09-11 02:11:00,0.0,1.9386,0.0011,391.09,0.26,207.8,34.5,138.03,31.34,24.65,36.51,0.87,-26.58,-23.36,-47,38,-939,24.3,20.1,-0.0,24.7,1.6,-30.1,5.73,2.53,-27.9,30.9
2012-09-11 02:12:00,0.0,1.9383,0.0011,391.09,0.28,223.1,33.6,138.03,31.34,24.65,36.51,0.92,-26.65,-21.38,-47,38,-939,24.3,19.9,-0.1,24.7,1.6,-29.9,5.73,2.54,-27.5,30.9
2012-09-11 02:13:00,0.0,1.9384,0.0012,391.01,0.35,249.9,30.7,138.03,31.35,24.65,36.51,0.95,-26.68,-19.47,-47,38,-939,24.4,19.8,-0.2,24.7,1.7,-29.3,5.73,2.54,-27.1,30.9
2012-09-11 02:14:00,0.0,1.9380,0.0011,391.12,0.33,273.8,34.7,138.03,31.35,24.66,36.51,0.89,-26.69,-17.64,-47,38,-939,24.3,19.8,-0.2,24.7,1.8,-28.7,5.73,2.53,-26.9,31.0
2012-09-11 02:15:00,0.0,1.9381,0.0010,391.01,0.33,277.3,39.3,138.03,31.36,24.65,36.51,0.80,-26.67,-15.89,-47,38,-939,24.4,19.9,-0.1,24.7,1.9,-28.4,5.73,2.53,-26.8,30.9
2012-09-11 02:16:00,0.0,1.9387,0.0008,391.04,0.29,281.2,30.9,138.03,31.36,24.65,36.52,0.85,-26.65,-14.26,-47,38,-939,24.4,20.0,-0.0,24.7,1.9,-28.2,5.73,2.52,-26.7,30.9
2012-09-11 02:17:00,0.0,1.9388,0.0009,391.05,0.31,291.4,34.8,138.03,31.37,24.65,36.51,0.88,-26.63,-12.70,-48,38,-939,24.4,20.0,-0.0,24.7,1.9,-28.1,5.73,2.53,-26.7,30.9
2012-09-11 02:18:00,0.0,1.9388,0.0010,390.99,0.30,282.8,30.0,138.03,31.37,24.65,36.51,0.92,-26.61,-11.21,-47,38,-939,24.4,20.1,0.1,24.7,1.9,-28.1,5.73,2.54,-26.7,31.0
2012-09-11 02:19:00,0.0,1.9392,0.0011,391.01,0.32,288.7,33.7,138.03,31.38,24.65,36.52,0.94,-26.58,-9.81,-47,38,-939,24.4,20.1,0.0,24.7,1.9,-28.1,5.73,2.54,-26.7,31.0
2012-09-11 02:20:00,0.0,1.9388,0.0011,391.06,0.30,286.5,36.4,138.03,31.38,24.66,36.51,0.91,-26.56,-8.49,-47,38,-939,24.4,20.1,0.1,24.7,1.9,-28.1,5.73,2.54,-26.7,31.0